Notices

What's New in latest Release from April 7th, 2021:

- Updated Glossary, including Speed of Maximum Gust, and Total Hourly Precipitation

- Updated national and regional climate services offices contacts and prices information

- Addition of station inventory lists for 1981-2010, 1971-2000, and 1961-1990 Normals.

If you haven't already, please take our survey and provide feedback about our website: https://eccc.sondage-survey.ca/f/LanguageSelection.aspx?s=442ca660-fcf1-47c0-95a9-59707d6fd709

Hourly Data Report for February 13, 2017

TORONTO INTL A
ONTARIO

43°40'36.000" N
79°37'50.000" W
173.40 m
6158731
71624
YYZ

Download Data

Hourly Data (February 2017)
Hourly Data Report for February 13, 2017
TIME
LST
Temp Definition
°C
Dew Point Definition
°C
Rel Hum Definition
%
Precip. Amount Definition
mm

Wind Dir Definition
10's deg

Wind Spd Definition
km/h
Visibility Definition
km
Stn Press Definition
kPa
Hmdx Definition


Wind Chill Definition


Weather Definition


00:00 -1.8 -6.2 72   30 47 24.1 98.85   -10 LegendNANA
01:00 -2.0 -6.8 70   30 49 24.1 98.93   -11 Mostly Cloudy
02:00 -1.4 -5.8 72   30 46 24.1 99.04   -10 LegendNANA
03:00 -1.6 -6.2 71   31 40 24.1 99.19   -10 LegendNANA
04:00 -2.0 -7.5 66   30 41 24.1 99.31   -10 Cloudy
05:00 -2.8 -8.1 67   31 35 24.1 99.44   -11 LegendNANA
06:00 -2.9 -8.8 64   30 35 24.1 99.50   -11 LegendNANA
07:00 -3.4 -9.9 61   31 45 24.1 99.61   -12 Mostly Cloudy
08:00 -3.6 -9.9 62   31 36 24.1 99.73   -12 LegendNANA
09:00 -4.0 -9.8 64   30 38 24.1 99.83   -13 LegendNANA
10:00 -4.1 -10.1 63   29 30 24.1 99.91   -12 Mostly Cloudy
11:00 -3.7 -9.8 63   30 26 24.1 99.98   -11 LegendNANA
12:00 -3.8 -9.7 64   29 30 24.1 99.98   -11 LegendNANA
13:00 -3.3 -9.2 64   31 23 24.1 99.93   -10 Mostly Cloudy
14:00 -2.8 -8.5 65   31 28 24.1 99.88   -10 LegendNANA
15:00 -2.3 -7.8 66   32 22 24.1 99.86   -8 LegendNANA
16:00 -1.4 -7.6 63   31 23 24.1 99.83   -7 Mostly Cloudy
17:00 -1.7 -7.9 63   31 25 24.1 99.75   -8 LegendNANA
18:00 -2.6 -8.1 66   31 14 24.1 99.74   -7 LegendNANA
19:00 -3.6 -8.1 71   26 9 24.1 99.75   -7 Mostly Cloudy
20:00 -4.6 -8.7 73   25 14 24.1 99.71   -10 LegendNANA
21:00 -5.3 -9.1 75   24 14 24.1 99.69   -11 LegendNANA
22:00 -5.2 -8.5 78   24 7 24.1 99.61   -8 Mostly Cloudy
23:00 -4.8 -8.6 75   21 10 24.1 99.52   -9 LegendNANA

Notes on Data Quality.

Legend

  • E = Estimated
  • M = Missing
  • NA = Not Available*
  • [empty] = Indicates an unobserved value
Date modified: